TimeMST,TemperatureF,Dew PointF,Humidity,Sea Level PressureIn,VisibilityMPH,Wind Direction,Wind SpeedMPH,Gust SpeedMPH,PrecipitationIn,Events,Conditions,WindDirDegrees,DateUTC
12:53 AM,37.9,26.1,62,30.24,10.0,North,-9999.0,-,N/A,,Clear,0,2013-03-02 07:53:00
1:53 AM,35.1,26.1,70,30.25,10.0,North,-9999.0,-,N/A,,Clear,0,2013-03-02 08:53:00
2:53 AM,34.0,25.0,70,30.23,10.0,North,-9999.0,-,N/A,,Clear,0,2013-03-02 09:53:00
3:53 AM,34.0,25.0,70,30.23,10.0,North,-9999.0,-,N/A,,Clear,0,2013-03-02 10:53:00
4:53 AM,36.0,25.0,64,30.23,10.0,North,-9999.0,-,N/A,,Clear,0,2013-03-02 11:53:00
5:01 AM,41.0,24.8,53,30.18,15.0,Calm,Calm,-,N/A,,Mostly Cloudy,0,2013-03-02 12:01:00
5:53 AM,30.9,23.0,72,30.24,10.0,North,-9999.0,-,N/A,,Clear,0,2013-03-02 12:53:00
6:01 AM,41.0,24.8,53,30.18,15.0,SSW,3.5,-,N/A,,Mostly Cloudy,210,2013-03-02 13:01:00
6:53 AM,30.9,23.0,72,30.24,10.0,North,-9999.0,-,N/A,,Clear,0,2013-03-02 13:53:00
7:00 AM,39.2,24.8,56,30.18,25.0,SE,3.5,-,N/A,,Mostly Cloudy,140,2013-03-02 14:00:00
7:53 AM,37.0,24.1,59,30.22,10.0,North,-9999.0,-,N/A,,Clear,0,2013-03-02 14:53:00
7:59 AM,39.2,24.8,56,30.17,25.0,NNE,2.3,-,N/A,,Mostly Cloudy,30,2013-03-02 14:59:00
8:53 AM,41.0,26.1,55,30.22,10.0,North,-9999.0,-,N/A,,Clear,0,2013-03-02 15:53:00
8:57 AM,41.0,24.8,53,30.17,25.0,Calm,Calm,-,N/A,,Mostly Cloudy,0,2013-03-02 15:57:00
9:53 AM,41.0,30.0,65,30.21,10.0,North,-9999.0,-,N/A,,Clear,0,2013-03-02 16:53:00
9:56 AM,44.6,26.6,49,30.15,25.0,Calm,Calm,-,N/A,,Mostly Cloudy,0,2013-03-02 16:56:00
10:53 AM,48.9,28.9,46,30.17,10.0,North,-9999.0,-,N/A,,Clear,0,2013-03-02 17:53:00
10:55 AM,48.2,24.8,40,30.13,25.0,NW,1.2,-,N/A,,Mostly Cloudy,310,2013-03-02 17:55:00
11:53 AM,46.9,30.9,54,30.16,10.0,North,-9999.0,-,N/A,,Clear,0,2013-03-02 18:53:00
12:53 PM,48.9,28.0,44,30.12,10.0,North,-9999.0,-,N/A,,Clear,0,2013-03-02 19:53:00
12:56 PM,55.4,26.6,33,30.08,25.0,NW,3.5,-,N/A,,Scattered Clouds,320,2013-03-02 19:56:00
1:53 PM,50.0,28.9,44,30.10,10.0,North,-9999.0,-,N/A,,Clear,0,2013-03-02 20:53:00
1:57 PM,53.6,26.6,35,30.06,25.0,SSW,3.5,-,N/A,,Scattered Clouds,210,2013-03-02 20:57:00
2:53 PM,52.0,27.0,38,30.10,10.0,North,-9999.0,-,N/A,,Clear,0,2013-03-02 21:53:00
2:56 PM,53.6,26.6,35,30.06,25.0,WNW,4.6,-,N/A,,Mostly Cloudy,300,2013-03-02 21:56:00
3:53 PM,50.0,28.0,43,30.09,10.0,North,-9999.0,-,N/A,,Clear,0,2013-03-02 22:53:00
3:57 PM,51.8,26.6,38,30.04,25.0,South,3.5,-,N/A,,Mostly Cloudy,170,2013-03-02 22:57:00
4:53 PM,46.0,28.0,50,30.08,10.0,North,-9999.0,-,N/A,,Clear,0,2013-03-02 23:53:00
4:57 PM,48.2,26.6,43,30.02,25.0,SSE,2.3,-,N/A,,Mostly Cloudy,160,2013-03-02 23:57:00
5:53 PM,42.1,28.0,58,30.09,10.0,North,-9999.0,-,N/A,,Clear,0,2013-03-03 00:53:00
5:55 PM,42.8,26.6,53,30.02,25.0,SE,1.2,-,N/A,,Overcast,130,2013-03-03 00:55:00
6:53 PM,37.9,28.9,70,30.07,10.0,North,-9999.0,-,N/A,,Clear,0,2013-03-03 01:53:00
6:56 PM,42.8,28.4,57,30.00,15.0,South,5.8,-,N/A,,Mostly Cloudy,180,2013-03-03 01:56:00
7:53 PM,39.0,28.0,65,30.01,10.0,North,-9999.0,-,N/A,,Mostly Cloudy,0,2013-03-03 02:53:00
7:56 PM,44.6,26.6,49,29.94,15.0,SSE,3.5,-,N/A,,Mostly Cloudy,160,2013-03-03 02:56:00
8:53 PM,39.0,27.0,62,29.98,10.0,North,-9999.0,-,N/A,,Clear,0,2013-03-03 03:53:00
8:55 PM,41.0,26.6,57,29.92,15.0,SW,1.2,-,N/A,,Mostly Cloudy,230,2013-03-03 03:55:00
9:53 PM,35.1,28.0,76,29.97,10.0,North,-9999.0,-,N/A,,Clear,0,2013-03-03 04:53:00
9:55 PM,39.2,28.4,65,29.90,15.0,NNW,4.6,-,N/A,,Mostly Cloudy,330,2013-03-03 04:55:00
10:53 PM,37.0,28.9,73,29.92,10.0,North,-9999.0,-,N/A,,Clear,0,2013-03-03 05:53:00
11:53 PM,34.0,28.0,79,29.91,10.0,North,-9999.0,-,N/A,,Clear,0,2013-03-03 06:53:00